Location: Shenandoah County Park
(38.9356°N, 78.4524°W)
Time: 19:08:16
(UTC-05:00)

N. Korean satellite - Pass Details

Date: 06 December 2021
Orbit: 447 x 490 km, 97.3° (Epoch: 26 January)

Event Time Altitude Azimuth Distance (km) Brightness Sun altitude
Rises 05:09:05 0° 18° (NNE) 2,456 10.2 -24.5°
Reaches altitude 10° 05:11:11 10° 24° (NNE) 1,579 9.3 -24.1°
Maximum altitude 05:14:27 46° 99° (E) 612 7.4 -23.4°
Drops below altitude 10° 05:17:41 10° 174° (S) 1,569 9.3 -22.8°
Sets 05:19:46 0° 181° (S) 2,439 10.3 -22.4°
